Время (UTC), дата Ветер
(°,м/с) 
Видим.   Явления Облачность Т
(°С)
Тd
(°С)
f(%) Тe
(°С)
Pmin
(гПа)
dP
(гПа)
Po
(мм)
O2
(г/м3)
Тmin Tmax R s Состояние
почвы
03 01.01.14 070 (В) 10 км    10/10 300 м 
[St]
+2.4 +0.9 90 +2  1028.9  0.1  769  307  +2.4         
06 01.01.14 060 (СВ) 10 км    10/10 300 м 
[St]
+2.5 +1 90 +2  1029.8  0.1  770  307  +2.3         
09 01.01.14 050 (СВ) 10 км    9/9 600 м 
[Sc]
+5.7 +1.7 75 +5  1029.1  -0.7  769  303           
12 01.01.14 060 (СВ) 10 км    9/9 600 м 
[Sc]
+5.2 +0.8 73 +4  1028.2  -0.9  768  304           
15 01.01.14 070 (В) 10 км    3/3 1000 м 
[Sc]
+3.9 -0.3 74 +3  1028.4  0.2  768  305    +6.5       
18 01.01.14 060 (СВ) 10 км    ясно 
+1.4 -0.9 85 +1  1028  -0.4  768  308           
21 01.01.14 060 (СВ) 10 км    ясно 
+0.7 -1.5 85 +1  1027.9  0.1  768  309           
00 02.01.14 070 (В) 10 км    ясно 
-0.4 -2.2 88 1027.6  -0.4  768  310           
03 02.01.14 060 (СВ) 10 км    ясно 
-1.1 -2.6 90 -1  1026.7  -0.9  767  311  -1.1         
06 02.01.14 080 (В) 10 км    3/0 верхняя 
[Ci fib]
-0.6 -2.2 89 1027.5  0.8  768  310  -1.8         
09 02.01.14 090 (В) 10 км    3/0 верхняя 
[Ci fib]
+3.1 -2.5 67 +4  1026.7  -0.7  767  306           
12 02.01.14 050 (СВ) 10 км    5/0 верхняя 
[Ci fib]
+5.9 -0.4 64 +7  1025.7  -0.9  767  302           
15 02.01.14 тихо ()   10 км    3/0 средняя 
[Ac trans]
+2.3 -1.2 78 +2  1026  0.2  767  306    +5.9       
18 02.01.14 тихо ()   4000 м  дымка  ясно 
-1.2 -2.3 92 -1  1026.2  0.1  767  311           
21 02.01.14 070 (В) 4000 м  дымка  ясно 
-0.9 -1.8 94 1026.4  0.2  767  310           
00 03.01.14 070 (В) 4000 м  дымка  ясно 
-1.6 -2.4 94 -1  1026.6  0.3  767  311           
03 03.01.14 090 (В) 2000 м  дымка  9/9 200 м 
[St]
-2.1 -2.8 95 -2  1026.7  767  312  -2.1         
06 03.01.14 100 (В) 1000 м  в посл. час туман  5/0 верхняя 
[Ci fib]
-2.2 -2.7 96 -2  1027.4  0.7  768  312  -2.9         
09 03.01.14 070 (В) 10 км    10/0 верхняя 
[Ci fib]
+4.9 -0.2 70 +6  1027.1  -0.2  767  304           
12 03.01.14 080 (В) 10 км    6/0 верхняя 
[Ci fib]
+6.6 -0.6 60 +6  1026.5  -0.5  767  302           
15 03.01.14 070 (В) 10 км    10/0 верхняя 
[Ci fib]
+3 -0.2 80 +4  1026.8  0.3  767  306    +7       
18 03.01.14 080 (В) 10 км    5/0 верхняя 
[Ci fib]
+1.9 -1.4 79 +3  1026.7  0.1  767  307           
21 03.01.14 060 (СВ) 4000 м  дымка  ясно 
-0.1 -2.6 83 +1  1026.3  -0.4  767  309           
00 04.01.14 050 (СВ) 4000 м  дымка  ясно 
-1.5 -3.2 88 -1  1026.6  0.2  767  311           
03 04.01.14 070 (В) 4000 м  дымка  ясно 
-2.5 -4.1 89 -2  1026.9  0.3  767  313  -2.5         
06 04.01.14 060 (СВ) 10 км    ясно 
-2.3 -4.4 85 -3  1027.4  0.5  768  312  -2.9         
09 04.01.14 070 (В) 10 км    ясно 
+3.7 -2.6 63 +5  1026.7  -0.6  767  305           
12 04.01.14 050 (СВ) 10 км    8/0 средняя, верхняя 
[Ac trans|Cc]
+6.4 -0.1 63 +7  1025.8  -0.8  767  302           
15 04.01.14 060 (СВ) 10 км    9/9 1000 м 
[Sc]
+3.9 -0.3 74 +3  1026.7  -0.8  767  305    +6.9       
18 04.01.14 060 (СВ) 10 км    10/0 средняя 
[Ac und]
+2.4 -1 78 +3  1026.8  0.1  767  307           
21 04.01.14 080 (В) 10 км    8/0 верхняя 
[Ci fib]
+0.9 -1.6 83 +2  1026.5  -0.3  767  308           
00 05.01.14 020 (С) 10 км    6/0 средняя, верхняя 
[Ac trans|Ci fib]
-0.5 -1.8 91 1027.2  0.7  768  310           
03 05.01.14 110 (В) 10 км    9/0 средняя 
[Ac trans]
-0.5 -2.4 87 1026.8  -0.5  767  310  -1.2         
06 05.01.14 070 (В) 10 км    4/0 средняя, верхняя 
[Ac trans|Ci fib]
-1.3 -3.3 86 -1  1028.3  1.5  768  311  -1.7         
09 05.01.14 050 (СВ) 10 км    1/0 верхняя 
[Ci fib]
+3.5 -1.2 71 +4  1026.8  -1.4  767  305           
12 05.01.14 030 (СВ) 10 км    ясно 
+7.1 +0.8 64 +8  1026.5  -1.4  767  301           
15 05.01.14 060 (СВ) 10 км    ясно 
+3.6 -1.1 71 +4  1027.3  0.8  768  305    +7.5       
18 05.01.14 060 (СВ) 10 км    ясно 
+1.5 -1 83 +1  1027.7  0.3  768  308           
21 05.01.14 060 (СВ) 10 км    ясно 
-0.2 -1.6 90 1027.6  -0.2  768  310           
00 06.01.14 070 (В) 10 км    5/0 верхняя 
[Ci]
-1 -2.3 91 -2  1027.5  -0.1  768  311           
03 06.01.14 060 (СВ) 1000 м  дымка  10/10 100 м 
[St]
-1.4 -2.3 94 -1  1027.3  -0.1  768  311  -1.5         
06 06.01.14 080 (В) 4000 м  дымка  10/0 средняя, верхняя 
[Ac trans|Ci]
-1.2 -2.5 91 -2  1027.9  0.6  768  311  -1.8         
09 06.01.14 060 (СВ) 10 км    9/0 средняя 
[Ac trans]
+3.1 -1 74 +3  1026.5  -1.3  767  306           
12 06.01.14 070 (В) 10 км    10/0 средняя, верхняя 
[Ac trans|Ci fib]
+6.8 +1.3 68 +8  1025.3  -1.1  766  301           
15 06.01.14 050 (СВ) 10 км    10/0 средняя 
[Ac und]
+5.5 +1.6 76 +6  1025.5  0.1  766  302    +7.6       
18 06.01.14 080 (В) 10 км    9/0 средняя 
[Ac trans]
+4.6 +1.4 80 +5  1024.9  -0.6  766  303           
21 06.01.14 070 (В) 10 км    9/0 средняя 
[Ac trans]
+3.5 +1.2 85 +4  1023.6  -1.3  765  304           
00 07.01.14 080 (В) 10 км    9/0 средняя 
[Ac trans]
+3.1 +0.8 85 +4  1023  -0.5  764  304           
03 07.01.14 130 (ЮВ) 10 км    9/5 1000 м средняя 
[Sc|Ac trans]
+6.6 +0.2 64 +8  1021.3  -1.7  763  300  +2.9         
06 07.01.14 210 (ЮЗ) 10 км    10/10 1000 м 
[Sc]
+7.7 +3 72 +8  1021.2  0.1  763  299           
09 07.01.14 210 (ЮЗ) 10 км  {ливн. осадки}  10/10 1000 м кучево-дожд. 
[Cb cap]
+9.2 +2.4 62 +9  1020.1  -1.1  762  297           
12 07.01.14 260 (З) 4000 м  слаб. ливневой дождь  10/10 300 м кучево-дожд. 
[Cb cap]
+7.3 +6.1 92 +7  1020.7  0.6  763  298           
15 07.01.14 270 (З) 10 км  {ливн. осадки}  9/9 600 м 
[Sc]
+5 +3.5 90 +5  1023  2.2  764  302    +10.1     
18 07.01.14 260 (З) 2000 м  дымка{ливн. осадки}  10/10 300 м 
[St]
+3.7 +2.5 92 +3  1024.5  1.4  766  304           
21 07.01.14 270 (З) 0200 м  туман  ?/?  
+1.6 +1 96 +2  1026.2  1.7  767  307           
03 08.01.14 060 (СВ) 1000 м  дымка  10/10 200 м 
[St]
+1.8 +1 95 +3  1027.4  0.7  768  307  +1.5         
06 08.01.14 тихо ()   1000 м  дымка  10/8 200 м верхняя 
[St|Ci fib]
+2.3 +1.3 93 +2  1028.9  1.5  769  307  +1.2         
09 08.01.14 170 (Ю) 1000 м  туман  10/10 200 м 
[St]
+2.2 +1.1 92 +3  1028.8  0.1  769  307           
12 08.01.14 090 (В) 10 км  {туман}  10/8 600 м верхняя 
[Cc]
+4.7 +1 77 +6  1027.8    768  304           
15 08.01.14 060 (СВ) 10 км    10/8 600 м верхняя 
[Sc|Ci fib]
+2.8 +1.1 88 +4  1028  0.2  768  306    +5.4       
18 08.01.14 тихо ()   10 км    9/9 600 м 
[Sc]
+2.9 +0.8 86 +3  1027.2  -0.7  768  306           
21 08.01.14 070 (В) 10 км    4/4 600 м 
[Sc]
+2.4 +0.9 90 +3  1025.6  -1.5  766  306           
00 09.01.14 070 (В) 10 км    10/10 1000 м 
[Sc]
+1.8 +0.9 94 +3  1025  -0.6  766  306           
03 09.01.14 070 (В) 4000 м  дымка  9/9 1000 м 
[Sc]
+1.4 +0.2 92 +2  1024.4  -0.6  765  307  +0.9         
06 09.01.14 тихо ()   10 км    9/9 1000 м 
[Sc]
+1.7 +0.5 92 +2  1024.2  -0.2  765  306  +0.7         
09 09.01.14 260 (З) 10 км    3/0 средняя 
[Ac trans]
+7.6 +1.7 66 +7  1022.6  -1.4  764  299           
12 09.01.14 230 (ЮЗ) 10 км    1/0 средняя 
[Ac trans]
+9.7 +2.2 59 +10  1021.1  -1.4  763  297           
15 09.01.14 250 (З) 10 км    9/3 1000 м средняя 
[Sc|Ac trans]
+7.5 +1.9 68 +7  1021.2  0.1  763  299    +10.1       
18 09.01.14 250 (З) 10 км    10/10 600 м 
[Sc]
+7.1 +2 70 +7  1021.7  0.5  764  300           
21 09.01.14 220 (ЮЗ) 10 км    10/10 600 м 
[Sc]
+7.3 +3.3 76 +7  1021.7  0.1  763  299           
00 10.01.14 220 (ЮЗ) 10 км    9/9 300 м 
[St]
+7.3 +4.5 82 +7  1021.8  0.1  764  299           
03 10.01.14 250 (З) 10 км    9/9 300 м 
[St]
+7.2 +4.2 81 +8  1021.1  -0.7  763  299  +6.1         
06 10.01.14 тихо ()   10 км    9/9 600 м 
[Sc]
+6.4 +4.6 88 +6  1021.2  0.1  763  300  +5.8         
09 10.01.14 200 (Ю) 10 км    10/10 600 м 
[Sc]
+10.1 +4.9 70 +10  1019.7  -1.4  762  295           
12 10.01.14 210 (ЮЗ) 10 км    9/9 1000 м 
[Sc]
+10.8 +4.6 66 +10  1017.6  -2.1  760  294           
15 10.01.14 210 (ЮЗ) 10 км    6/1 1000 м средняя, верхняя 
[Sc|Ac trans|Ci fib]
+7.9 +2.2 67 +9  1016.6  -1  760  297    +11.2       
18 10.01.14 210 (ЮЗ) 10 км    3/0 верхняя 
[Ci fib]
+6.3 +1.7 72 +7  1014.5  -2.1  758  298           
21 10.01.14 190 (Ю) 3{10}  10 км    8/0 верхняя 
[Cs]
+8.6 +1.7 62 +8  1012.4  -2  757  295           
00 11.01.14 190 (Ю) 4{11}  10 км    8/0 верхняя 
[Cs]
+9.3 +2.8 64 +8  1010.5  -1.9  755  294           
03 11.01.14 240 (ЮЗ) 4{12}  10 км    10/10 1000 м 
[Sc]
+9.9 +3.4 64 +9  1011.7  1.2  756  293  +6.2         
06 11.01.14 260 (З) 3{11}  4000 м  слаб. ливневой дождь  10/10 300 м кучево-дожд. 
[Cb cap]
+7.3 +5.2 86 +7  1015.4  3.6  759  297           
09 11.01.14 250 (З) 4{10}  10 км  {ливн. осадки}  8/8 300 м 
[St]
+7.9 +2.8 70 +7  1017.3  1.9  760  297           
12 11.01.14 260 (З) 5{10}  10 км  {ливн. осадки}  3/1 1000 м средняя, верхняя 
[Sc|Ac trans|Ci]
+9.8 +0.3 52 +9  1017.9  0.7  761  296           
15 11.01.14 240 (ЮЗ) 3{11}  10 км    3/3 1500 м 
[Sc]
+7.6 +0.1 59 +7  1019.7  1.8  762  299    +10.2  0.5     
18 11.01.14 230 (ЮЗ) 10 км    ясно 
+6.4 -0.1 63 +5  1020.4  0.6  762  300           
21 11.01.14 250 (З) 10 км    ясно 
+6.8 -1.7 55 +6  1020.9  0.5  763  300           
00 12.01.14 240 (ЮЗ) 2{11}  10 км    10/0 средняя, верхняя 
[Ac trans|Cs]
+6.1 -2.1 56 +6  1021.5  0.6  763  301           
03 12.01.14 220 (ЮЗ) 10 км    9/8 1000 м средняя 
[Sc|Ac trans]
+4.6 -2.6 60 +4  1021.4  -0.2  763  303  +4.6         
06 12.01.14 210 (ЮЗ) 10 км    10/10 600 м кучево-дожд. 
[Cb cap]
+6.1 -0.4 63 +6  1021.5  0.2  763  301  +4.2         
09 12.01.14 210 (ЮЗ) 10 км  {ливн. осадки}  9/9 1000 м 
[Sc diur, vesp]
+7.4 +2.9 73 +8  1019.6  -1.9  762  298           
12 12.01.14 200 (Ю) 4{10}  10 км  {ливн. осадки}  9/9 1000 м 
[Sc]
+10 +1.1 54 +9  1017  -2.5  760  295           
15 12.01.14 190 (Ю) 4000 м  слаб. ливневой дождь  9/9 600 м кучево-дожд. 
[Cb cap]
+6.6 +5 90 +6  1015.3  -1.7  759  298    +10.8     
18 12.01.14 200 (Ю) 10 км  {ливн. осадки}  10/10 1000 м 
[Sc]
+7.6 +1.7 66 +6  1013.5  -1.8  757  297           
21 12.01.14 190 (Ю) 5{13}  10 км    10/0 средняя, верхняя 
[Ac trans|Ci fib]
+7.2 +2.3 71 +5  1012.2  -1.3  756  297           
00 13.01.14 220 (ЮЗ) 3{12}  4000 м  слаб. ливневой дождь  10/10 600 м кучево-дожд. 
[Cb cap]
+4.6 +3.6 93 +3  1012.4  0.2  757  299           
03 13.01.14 240 (ЮЗ) 10 км  {ливн. осадки}  10/10 1000 м 
[Sc diur, vesp]
+5.1 +1.6 78 +4  1012.1  -0.2  756  299  +4.6       
06 13.01.14 230 (ЮЗ) 10 км  {ливн. осадки}  10/4 1000 м средняя, верхняя 
[Sc|Ac trans|Ci fib]
+4.6 -0.5 69 +3  1013.1  0.9  757  300  +4.4         
09 13.01.14 250 (З) 4-12{13}  10 км    6/3 600 м верхняя 
[Sc|Ci fib]
+6.7 -1.4 56 +5  1013.1  757  298           
12 13.01.14 270 (З) 4{12}  10 км    8/8 1000 м кучево-дожд. 
[Cb cap]
+5.6 -2.2 57 +4  1013.2  -0.1  757  299           
15 13.01.14 250 (З) 10 км    10/8 1000 м кучево-дожд., верхняя 
[Cb cap|Ci fib]
+4.5 -2 63 +3  1014.2  758  301    +7.2       
18 13.01.14 210 (ЮЗ) 10 км    3/3 1000 м 
[Sc]
+2.8 -2.1 70 +2  1014.5  758  303           
21 13.01.14 190 (Ю) 10 км    9/9 1000 м кучево-дожд., средняя 
[Cb cap|Ac trans]
+2.4 -2.7 69 +3  1014.3  -0.3  758  303           
00 14.01.14 240 (ЮЗ) 10 км    10/8 1000 м средняя 
[Sc|Ac und]
+2.8 -1.6 73 +1  1014.8  0.5  758  303           
03 14.01.14 240 (ЮЗ) 3{10}  10 км  {ливн. осадки}  5/5 1000 м кучево-дожд. 
[Cb cap]
+0.5 -3.5 75 -1  1016.8  760  306  +0.5    0.0     
06 14.01.14 230 (ЮЗ) 10 км  в посл. час ливневой снег  10/10 600 м кучево-дожд. 
[Cb cap]
+0.7 -3.5 74 -1  1019.8  762  307  +0.3         
09 14.01.14 240 (ЮЗ) 4000 м  слаб. ливневой снег  10/10 600 м кучево-дожд. 
[Cb cap]
+1.7 -1.5 79 +1  1022  2.2  764  306           
12 14.01.14 250 (З) 10 км  {ливн. осадки}  9/9 600 м кучево-дожд. 
[Cb cap]
+3.5 -3.2 62 +2  1022.8  0.8  764  304           
15 14.01.14 270 (З) 10 км    9/9 600 м кучево-дожд. 
[Cb cap]
+2.6 -3.2 66 +2  1024.4  1.6  765  306    +3.5  0.0     
18 14.01.14 290 (З) 10 км    3/0 средняя 
[Ac trans]
+0.4 -3.5 75 +1  1026  1.5  767  309           
21 14.01.14 250 (З) 10 км    ясно 
-0.7 -3.6 81 1026.6  0.6  767  310           
00 15.01.14 тихо ()   10 км    ясно 
-2.5 -3.6 92 -3  1027.4  0.7  768  313           
06 15.01.14 120 (ЮВ) 10 км    3/0 верхняя 
[Ci]
-0.2 -3 81 1027.8  0.6  768  310           
09 15.01.14 090 (В) 10 км    4/0 верхняя 
[Ci fib]
+3.9 -3.5 58 +3  1027  -0.8  767  305           
12 15.01.14 080 (В) 10 км    6/0 верхняя 
[Ci fib]
+5.7 -2.1 57 +5  1025.8  -1.2  767  303           
15 15.01.14 100 (В) 10 км    ясно 
+3.7 -1.7 68 +2  1025.3  -0.5  766  305    +5.8       
18 15.01.14 090 (В) 10 км    ясно 
+2.5 -2.4 70 +2  1024.3  -1  765  306           
21 15.01.14 тихо ()   10 км    ясно 
+0.3 -2.7 80 1023.7  -0.6  765  308           
00 16.01.14 080 (В) 10 км    8/0 верхняя 
[Ci]
-0.3 -2.7 84 1021.9  -1.8  764  308           
03 16.01.14 тихо ()   10 км    9/0 средняя, верхняя 
[Ac trans|Ci]
-0.2 -2.9 82 -0  1019.9  -1.9  762  308  -0.8         
06 16.01.14 тихо ()   10 км    10/4 1000 м средняя, верхняя 
[Sc|Ac trans|Ci fib]
+0.8 -2.3 80 +1  1019.1  -0.8  761  306           
09 16.01.14 150 (ЮВ) 10 км    10/5 1000 м кучево-дожд., средняя 
[Cb cap|Ac und]
+8.8 -3.4 42 +10  1017.2  -1.8  760  297           
12 16.01.14 200 (Ю) 10 км    10/8 1000 м кучево-дожд., средняя 
[Cb cap|Ac und]
+13.3 -3.6 31 +13  1015.6  -1.5  759  292           
15 16.01.14 210 (ЮЗ) 10 км    10/8 1000 м средняя 
[Sc|Ac und]
+12.7 -4.1 31 +12  1015.3  -0.3  759  293    +13.4       
18 16.01.14 200 (Ю) 3{11}  10 км    10/6 1000 м средняя 
[Sc|Ac und]
+11.6 -1.2 41 +11  1014.9  -0.4  758  293           
21 16.01.14 210 (ЮЗ) 4000 м  слаб. ливневой дождь  10/8 1000 м кучево-дожд., средняя 
[Cb cap|Ac und]
+10.4 +4.6 67 +10  1015.3  0.4  759  294           
00 17.01.14 200 (Ю) 4000 м  слаб. ливневой дождь  10/8 1000 м кучево-дожд., средняя 
[Cb cap|Ac und]
+8.8 +6.8 87 +9  1015.8  0.4  759  295           
03 17.01.14 280 (З) 4000 м  слаб. ливневой дождь  10/10 300 м кучево-дожд. 
[Cb cap]
+7.6 +6.7 94 +9  1016.9  1.1  760  297  +7.6       
06 17.01.14 280 (З) 4000 м  в посл. час ливневой дождь  10/10 300 м кучево-дожд. 
[Cb cap]
+6.6 +5.7 94 +6  1018.8  1.9  761  299  +6.6         
09 17.01.14 280 (З) 4000 м  слаб. ливневой дождь  10/10 300 м кучево-дожд. 
[Cb cap]
+5.6 +3.8 88 +6  1019.7  0.9  762  300           
18 17.01.14 260 (З) 10 км  {дождь}  10/8 1000 м средняя 
[Sc|Ac und]
+3 -0.3 79 +4  1022.8  1.2  764  305           
21 17.01.14 300 (СЗ) 10 км    10/0 верхняя 
[Cs]
+1.4 -1.9 79 +2  1023.2  0.4  765  307           
00 18.01.14 тихо ()   10 км    9/9 1000 м 
[Sc]
+1 -1.6 83 +1  1022.8  -0.4  764  307           
03 18.01.14 120 (ЮВ) 10 км    10/0 средняя 
[Ac und]
+2 -0.6 83 +3  1021.2  -1.5  763  305  +0.2         
06 18.01.14 090 (В) 4000 м  в посл. час ливневой дождь  10/10 600 м кучево-дожд. 
[Cb cap]
+2.3 +1.1 92 +2  1019.4  -1.8  762  304           
09 18.01.14 210 (ЮЗ) 4-10{10}  10 км    10/10 600 м 
[Sc diur, vesp]
+10.5 +7.4 81 +10  1017.4  -1.9  760  294           
12 18.01.14 200 (Ю) 5-10{13}  10 км  слаб. ливневой дождь  10/10 600 м кучево-дожд. 
[Cb cap]
+10.9 +7.8 81 +10  1014.6  -2.7  758  292           
15 18.01.14 210 (ЮЗ) 4{13}  10 км  {ливн. осадки}  9/9 300 м 
[St]
+11.6 +6.6 71 +11  1014.4  -0.2  758  292    +11.6     
18 18.01.14 220 (ЮЗ) 5-10{10}  10 км  {ливн. осадки}  10/10 300 м 
[St]
+11.8 +6.5 70 +11  1015  0.6  759  292           
21 18.01.14 230 (ЮЗ) 2{11}  10 км    9/9 300 м 
[St]
+11.2 +6.6 73 +11  1015.9  0.9  759  293           
00 19.01.14 260 (З) 10 км    10/10 600 м 
[Sc]
+9.7 +7.1 84 +9  1017.6  1.7  760  295           
03 19.01.14 280 (З) 10 км    10/10 600 м 
[Sc]
+7.2 +3.6 78 +7  1019  1.4  761  298  +7.2         
06 19.01.14 300 (СЗ) 10 км    10/10 600 м 
[Sc]
+4.9 +2.8 86 +4  1020.7  1.7  763  302  +4.9         
09 19.01.14 320 (СЗ) 10 км    10/10 600 м 
[Sc]
+4.7 +0.9 76 +4  1021.7  0.9  763  302           
12 19.01.14 350 (С) 10 км    10/8 600 м средняя 
[Sc|Ac und]
+4.5 +0.9 77 +5  1022.3  0.7  764  303           
18 19.01.14 050 (СВ) 2000 м  в посл. час морось  10/10 200 м 
[St]
+1.3 +0.1 92 1023.9  0.1  765  307           
21 19.01.14 040 (СВ) 2000 м  дымка  10/10 200 м 
[St]
+0.9 -1 87 1024  -0.1  765  307           
00 20.01.14 050 (СВ) 4000 м  слаб. дождь  10/10 300 м 
[Ns]
+0.1 -1.4 90 -1  1023.3  -0.6  765  308           
03 20.01.14 060 (СВ) 4000 м  слаб. переохл. морось (гололёд){дождь}  10/10 300 м 
[St]
-0.4 -1.7 91 -1  1023  -0.3  764  309  -0.4    0.6     
06 20.01.14 060 (СВ) 4000 м  слаб. переохл. дождь (гололёд){морось}  10/10 200 м верхняя 
[Cs]
-0.4 -1.7 91 -1  1022.6  -0.4  764  309  -0.4         
09 20.01.14 070 (В) 4000 м  слаб. переохл. дождь (гололёд) [диам. гололёда 2 мм]  10/10 200 м 
[St|Ns]
-0.4 -1.7 91 -1  1021.8  -0.9  763  308           
12 20.01.14 040 (СВ) 4000 м  слаб. переохл. дождь (гололёд) [диам. гололёда 4 мм]  10/10 300 м 
[Frnb|Ns]
-1.2 -2.5 91 -1  1020.8  -0.9  763  309           
15 20.01.14 050 (СВ) 4000 м  слаб. переохл. дождь (гололёд) [диам. гололёда 5 мм]  10/10 300 м 
[Frnb|Ns]
-1.4 -2.9 89 -2  1021.2  0.4  763  309    -0.1  11     
18 20.01.14 040 (СВ) 4000 м  слаб. переохл. дождь (гололёд){снег} [диам. гололёда 9 мм]  10/10 300 м 
[Frnb|Ns]
-1.4 -2.7 91 -1  1020.2  -1  762  309           
21 20.01.14 тихо ()   4000 м  слаб. переохл. дождь (гололёд)  10/10 300 м 
[Frnb|Ns]
-1.2 -2.5 91 -1  1019.6  -0.6  762  309           
00 21.01.14 060 (СВ) 4000 м  слаб. переохл. дождь (гололёд){снег} [диам. гололёда 15 мм]  10/10 200 м 
[Frnb|Ns]
-0.9 -2.2 91 -3  1018.7  -0.8  761  308           
03 21.01.14 040 (СВ) 4000 м  слаб. переохл. дождь (гололёд) [диам. гололёда 15 мм]  10/10 200 м 
[Frnb|Ns]
-1.1 -2.3 91 -1  1018.3  -0.4  761  308  -1.4    16     
06 21.01.14 тихо ()   10 км  {дождь} [диам. гололёда 17 мм]  10/10 300 м 
[Frnb|Ns]
-1.1 -2.4 91 -1  1017.9  -0.4  761  308           
09 21.01.14 тихо ()   4000 м  переохл. дождь (гололёд) [диам. гололёда 18 мм]  10/10 200 м 
[Frnb|Ns]
-0.7 -2 91 -1  1017.2  -0.8  760  307           
12 21.01.14 тихо ()   10 км  в посл. час переохл. осадки (гололёд){дождь} [диам. гололёда 20 мм]  10/10 200 м 
[Frnb|Ns]
+0 -0.9 94 1016  -1.2  759  306           
15 21.01.14 тихо ()   10 км  в посл. час дождь [диам. гололёда 20 мм]  10/10 200 м 
[Frnb|Ns]
+0.1 -0.7 94 1016.1  0.1  759  306    +0.1     
18 21.01.14 тихо ()   10 км  {дождь} [диам. гололёда 20 мм]  9/9 300 м 
[St]
+0.3 -0.4 95 1015.1  -0.9  758  305           
21 21.01.14 тихо ()   10 км  {дождь}  9/9 600 м 
[Sc]
+0.5 -0.2 95 +1  1014  -1.1  758  305           
00 22.01.14 тихо ()   10 км  {дождь} [диам. гололёда 18 мм]  3/3 1000 м 
[Sc]
+0.4 -0.3 95 1012.2  -1.8  756  304           
03 22.01.14 тихо ()   10 км  [диам. гололёда 18 мм]  9/0 средняя, верхняя 
[Ac trans|Ci]
+0.6 -0.1 95 +1  1009.6  -2.5  754  303  +0.1       
06 22.01.14 тихо ()   10 км  [диам. гололёда 17 мм]  10/3 1000 м средняя, верхняя 
[Sc|Ac trans|Ci fib]
+1.1 +0.2 94 +1  1007.3  -2.4  753  302           
09 22.01.14 тихо ()   10 км    10/3 1000 м средняя, верхняя 
[Sc|Ac trans|Ci fib]
+2 +0.5 90 +2  1005.5  -1.7  751  300           
12 22.01.14 080 (В) 10 км    10/5 1000 м кучево-дожд., средняя 
[Cb cap|Ac und]
+3.4 +1.3 86 +4  1004.2  -1.3  750  298           
15 22.01.14 210 (ЮЗ) 4000 м  слаб. ливневой дождь  10/10 600 м кучево-дожд. 
[Cb cap]
+8.7 +7.6 93 +9  1005.1  1.1  751  292    +8.7     
18 22.01.14 200 (Ю) 10 км  в посл. час ливневой дождь  10/8 1000 м кучево-дожд., средняя 
[Cb cap|Ac und]
+8.3 +6.8 90 +8  1006  0.8  752  293           
21 22.01.14 260 (З) 4{11}  4000 м  слаб. дождь{ливн. осадки}  10/10 300 м 
[Frnb|Ns]
+3.5 +2.2 91 +2  1008.7  2.6  754  300           
00 23.01.14 260 (З) 4000 м  слаб. дождь  10/10 300 м 
[Frnb]
+2.3 +0.8 90 +1  1010.7  755  302           
03 23.01.14 260 (З) 3{10}  10 км  слаб. дождь  10/10 600 м 
[Sc]
+1.1 -0.9 87 1012.6  1.9  757  304  +1.1       
06 23.01.14 270 (З) 10 км  в посл. час дождь  10/10 600 м 
[Sc]
+0.2 -2.1 85 -2  1014.3  1.7  758  305  +0.2         
09 23.01.14 270 (З) 4000 м  слаб. снег  10/10 300 м 
[Frnb|Ns]
-0 -1.7 88 -2  1015.4  1.1  759  306           
12 23.01.14 270 (З) 10 км  {ливн. осадки, снег}  10/5 300 м кучево-дожд., средняя 
[Cb cap|Ac und]
+1.3 -1.7 80 1015.5  -0.1  759  304           
15 23.01.14 290 (З) 10 км  {ливн. осадки}  10/8 1000 м кучево-дожд., средняя 
[Cb cap|Ac und]
+0.6 -1.6 85 1016.5  760  306    +1.4  0.5     
18 23.01.14 270 (З) 10 км  слаб. ливневой дождь  10/10 300 м кучево-дожд. 
[Cb cap]
-0.2 -2.7 83 -1  1017.2  0.7  760  307           
21 23.01.14 290 (З) 2000 м  слаб. ливневой дождь  10/10 600 м кучево-дожд. 
[Cb cap]
-1.2 -2.2 93 -2  1017.5  0.3  760  308           
00 24.01.14 270 (З) 10 км  {ливн. осадки}  10/10 300 м кучево-дожд. 
[Cb cap]
-1.6 -3.4 87 -3  1018.3  0.7  761  309           
03 24.01.14 260 (З) 10 км    10/10 300 м кучево-дожд. 
[Cb cap]
-1.8 -4.3 83 -4  1018.9  0.6  761  309  -1.8    равномерный
сухой снег
100% 
06 24.01.14 290 (З) 10 км  {ливн. осадки}  10/10 300 м кучево-дожд. 
[Cb cap]
-3.1 -5.1 86 -4  1020.1  1.2  762  311  -3.1         
09 24.01.14 270 (З) 10 км    10/10 600 м 
[Sc diur, vesp]
-2.8 -6 79 -4  1021.1  763  311           
12 24.01.14 280 (З) 10 км  слаб. снег  10/10 300 м 
[Frnb]
-3.2 -6.4 78 -4  1021.8  0.7  763  312           
15 24.01.14 300 (СЗ) 10 км  {снег}  10/10 300 м 
[St]
-4.7 -7.7 80 -7  1023.1  1.4  764  314    -1.9  0.5     
18 24.01.14 280 (З) 10 км  {снег}  6/4 1000 м верхняя 
[Sc|Ci fib]
-7 -9.9 80 -7  1024.5  1.4  765  318           
21 24.01.14 330 (СЗ) 10 км    1/0 средняя 
[Ac trans]
-8 -10.5 82 -8  1024.9  0.4  766  319           
00 25.01.14 030 (СВ) 10 км    10/10 1000 м 
[Sc]
-9 -11.1 85 -9  1025.4  0.4  766  320           
03 25.01.14 070 (В) 10 км    3/0 средняя 
[Ac trans]
-9.8 -12.6 80 -10  1025.5  0.1  766  321  -9.8      равномерный
сухой снег
100% 
06 25.01.14 050 (СВ) 10 км    8/3 1000 м верхняя 
[Sc|Ci fib]
-9.8 -13.4 75 -10  1025.8  0.2  766  322  -10.6         
09 25.01.14 060 (СВ) 10 км    6/3 1000 м средняя, верхняя 
[Sc|Ac trans|Ci fib]
-6 -11.6 64 -7  1024  -1.7  765  316           
12 25.01.14 050 (СВ) 10 км    6/0 верхняя 
[Ci fib]
-5.9 -12 62 -7  1022.4  -1.6  764  316           
15 25.01.14 040 (СВ) 10 км    6/0 верхняя 
[Ci fib]
-9.3 -13.6 71 -11  1022.6  0.1  764  320    -4.9       
18 25.01.14 040 (СВ) 10 км    ясно 
-10.6 -14.8 71 -12  1022  -0.6  764  321           
21 25.01.14 070 (В) 10 км    10/10 1000 м 
[Sc]
-9.9 -15.1 66 -13  1021.3  -0.6  763  320           
00 26.01.14 040 (СВ) 10 км    10/10 1000 м 
[Sc]
-9.2 -13.4 71 -11  1020.7  -0.6  763  319           
03 26.01.14 070 (В) 4000 м  слаб. снег  10/10 1000 м 
[Sc]
-9.1 -11.3 84 -12  1019  -1.7  761  318  -10.7         
06 26.01.14 060 (СВ) 4000 м  слаб. снег  10/10 600 м 
[Ns]
-7.9 -11 78 -11  1019.4  0.4  762  317           
09 26.01.14 060 (СВ) 4000 м  слаб. снег  10/10 600 м 
[Frnb|Ns]
-6.9 -10.1 78 -10  1018.6  -0.7  761  316           
12 26.01.14 060 (СВ) 10 км  {снег}  9/9 1000 м 
[Sc]
-5 -8.9 74 -8  1016.9  -1.7  760  313           
15 26.01.14 050 (СВ) 10 км    9/9 1000 м 
[Sc]
-5 -8.3 78 -7  1016.8  0.1  760  313    -4.8     
18 26.01.14 060 (СВ) 10 км    9/9 600 м 
[Sc]
-5.1 -8.8 75 -8  1015.8  -1  759  313           
21 26.01.14 060 (СВ) 3{10}  10 км    9/9 600 м кучево-дожд. 
[Cb cap]
-5.6 -8.9 77 -8  1014.6  -1.2  758  313           
00 27.01.14 060 (СВ) 3{11}  4000 м  ледяной дождь (гололёд){снег} [диам. гололёда 1 мм]  10/10 600 м 
[Ns]
-5.5 -8.5 79 -8  1013.4  -1.1  757  312           
03 27.01.14 060 (СВ) 3{10}  4000 м  слаб. переохл. дождь (гололёд){снег} [диам. гололёда 1 мм]  10/10 600 м 
[Ns]
-5.7 -8.4 81 -8  1011.4  -2  756  312  -5.9    равномерный
сухой снег
100% 
06 27.01.14 070 (В) 4000 м  слаб. переохл. дождь (гололёд){снег} [диам. гололёда 1 мм]  10/10 300 м 
[Frnb|Ns]
-3.6 -5.8 85 -5  1011.1  -0.3  755  309           
09 27.01.14 070 (В) 3{10}  4000 м  слаб. переохл. дождь (гололёд) [диам. гололёда 2 мм]  10/6 300 м средняя 
[Frnb|Ac As]
-1.3 -3.9 83 -3  1009.5  -1.6  754  306           
12 27.01.14 080 (В) 3{10}  10 км  {дождь} [диам. гололёда 2 мм]  9/8 600 м средняя 
[Sc|Ac trans]
-0.4 -4.1 76 -2  1009.2  -0.3  754  305           
15 27.01.14 070 (В) 10 км  [диам. гололёда 2 мм]  10/8 1000 м средняя, верхняя 
[Sc|Ac trans|Ci fib]
-0.1 -3.8 76 -2  1009.3  -0.1  754  304    -0     
18 27.01.14 070 (В) 10 км  [диам. гололёда 2 мм]  10/6 1000 м средняя, верхняя 
[Sc|Ac trans|Ci fib]
-0.6 -3.8 79 -1  1009.1  -0.3  754  305           
21 27.01.14 060 (СВ) 10 км  [диам. гололёда 2 мм]  10/6 600 м средняя 
[Sc|Ac und]
-0.8 -3.7 81 -2  1009.4  0.3  754  305           
00 28.01.14 060 (СВ) 10 км  [диам. гололёда 2 мм]  10/10 600 м 
[Sc]
-0.7 -3.3 83 -2  1008.7  -0.7  754  305           
03 28.01.14 040 (СВ) 10 км  [диам. гололёда 2 мм]  10/8 600 м средняя 
[Sc|Ac und]
-1.2 -3.9 82 -1  1008.4  -0.3  753  305  -1.3      мокрый или
старый снег
50-90% 
06 28.01.14 040 (СВ) 10 км  [диам. гололёда 2 мм]  9/9 1000 м 
[Sc]
-1.8 -4.5 82 -1  1009.4  -0.3  754  306  -1.8         
09 28.01.14 040 (СВ) 10 км    9/0 средняя 
[Ac cast]
-0.4 -4.1 76 -1  1009.5  0.2  754  305           
12 28.01.14 050 (СВ) 10 км    10/0 средняя, верхняя 
[Ac trans|Ci fib]
+0.3 -3.2 77 1008.8  -0.7  754  304           
15 28.01.14 050 (СВ) 10 км    10/10 1000 м кучево-дожд. 
[Cb cap]
-1.1 -3.8 82 -3  1010  1.1  755  306    +0.4       
18 28.01.14 060 (СВ) 10 км  слаб. переохл. дождь (гололёд) [диам. гололёда 1 мм]  10/0 средняя 
[Frnb|As op]
-2.1 -4.3 85 -4  1011.5  1.5  756  307           
21 28.01.14 070 (В) 4{10}  10 км  {дождь}  10/10 300 м 
[St]
-3.5 -6.3 81 -6  1012.8  1.3  757  310           
00 29.01.14 070 (В) 4{12}  10 км  слаб. переохл. дождь (гололёд) [диам. гололёда 1 мм]  10/10 300 м 
[St]
-4.8 -7.1 84 -8  1013.8  757  311           
03 29.01.14 070 (В) 10 км  {дождь} [диам. гололёда 1 мм]  10/10 300 м 
[St]
-5.4 -7.7 84 -8  1014.1  0.3  758  312  -5.4    лёд 
06 29.01.14 060 (СВ) 10 км  {дождь} [диам. гололёда 1 мм]  10/10 300 м 
[St]
-6 -8.5 82 -9  1016.1  759  314  -6         
09 29.01.14 060 (СВ) 3{11}  10 км  [диам. гололёда 1 мм]  10/10 300 м 
[St]
-6.6 -9.5 80 -9  1016.9  0.8  760  315           
12 29.01.14 040 (СВ) 3{10}  4000 м  слаб. переохл. морось (гололёд) [диам. гололёда 1 мм]  10/10 300 м 
[St]
-8.4 -11.1 81 -11  1017.5  0.6  760  317           
15 29.01.14 050 (СВ) 10 км  {морось} [диам. гололёда 1 мм]  10/10 600 м 
[Sc]
-9 -12.3 77 -12  1018.7  1.2  761  318    -5.4  0.3     
18 29.01.14 050 (СВ) 4-10{11}  4000 м  слаб. крупа{ливн. осадки}  10/10 600 м кучево-дожд. 
[Cb cap]
-9.9 -12.6 81 -14  1019.4  0.7  762  320           
21 29.01.14 050 (СВ) 5-12{13}  1000 м  крупа{ливн. осадки}  10/10 600 м кучево-дожд. 
[Cb cap]
-11.2 -13.9 80 -16  1019.7  0.3  762  321           
00 30.01.14 060 (СВ) 5-11{14}  2000 м  слаб. ливневой снег  10/10 300 м кучево-дожд. 
[Cb cap]
-11.8 -14 84 -17  1020.3  0.6  762  322           
03 30.01.14 060 (СВ) 5-13{14}  4000 м  слаб. ливневой снег  10/10 300 м кучево-дожд. 
[Cb cap]
-12.9 -15.5 81 -18  1021.2  0.9  763  324  -12.9         
06 30.01.14 050 (СВ) 4-10{13}  2000 м  слаб. ливневой снег  10/10 300 м кучево-дожд. 
[Cb cap]
-13.9 -16.5 81 -18  1023.9  2.7  765  326  -13.9         
09 30.01.14 050 (СВ) 4-13{13}  10 км  {ливн. осадки}  10/8 1000 м кучево-дожд., средняя 
[Cb cap|Ac und]
-13.6 -16.8 77 -18  1026.7  2.7  767  327           
12 30.01.14 050 (СВ) 3{13}  4000 м  слаб. ливневой снег  10/8 600 м кучево-дожд., средняя 
[Cb cap|Ac As]
-13.8 -16.6 79 -17  1028.9  2.2  769  328           
15 30.01.14 060 (СВ) 5-11{13}  10 км  {ливн. осадки}  10/10 600 м кучево-дожд. 
[Cb cap]
-14.6 -18 75 -20  1031.5  2.5  771  330    -12.8     
18 30.01.14 060 (СВ) 4{12}  4000 м  слаб. ливневой снег  10/10 600 м кучево-дожд. 
[Cb cap]
-14.8 -17.8 78 -19  1034  2.4  772  331           
03 31.01.14 050 (СВ) 3{12}  10 км    10/10 600 м кучево-дожд. 
[Cb cap]
-14 -17.9 72 -18  1037.5  1.3  775  331  -15    равномерный
сухой снег
100% 
09 31.01.14 050 (СВ) 3-12{12}  4000 м  слаб. ливневой снег  10/10 300 м кучево-дожд. 
[Cb cap]
-13.8 -17.7 73 -17  1041  1.4  778  332           
12 31.01.14 040 (СВ) 3{12}  10 км  {ливн. осадки, снег}  9/0 средняя 
[Ac trans]
-12.5 -17.5 66 -16  1041.3  0.3  778  330           
15 31.01.14 050 (СВ) 4{10}  10 км    3/0 средняя 
[Ac trans]
-15 -19.5 69 -20  1042.9  1.6  779  334    -11.9  0.5     
18 31.01.14 040 (СВ) 2{10}  10 км    ясно 
-16.5 -21.2 67 -19  1043.6  0.7  780  336           
21 31.01.14 040 (СВ) 10 км    ясно 
-17.6 -22.1 68 -22  1043.2  -0.4  779  337           
00 01.02.14 040 (СВ) 10 км    ясно 
-17.9 -21.9 71 -20  1043.5  0.3  779  338           
03 01.02.14 050 (СВ) 10 км    ясно 
-17.7 -21.7 71 -20  1042.9  -0.6  779  337  -17.9      равномерный
сухой снег
100% 
06 01.02.14 050 (СВ) 10 км    ясно 
-15 -19.9 66 -17  1042.7  0.1  779  334           
Время (UTC), дата Ветер
(°,м/с) 
Видим.   Явления Облачность Т
(°С)
Тd
(°С)
f(%) Тe
(°С)
Pmin
(гПа)
dP
(гПа)
Po
(мм)
O2
(г/м3)
Тmin Tmax R s Состояние
почвы